Overview Statistics Trail Chart Weather Telemetry Raw packets
 

This is the latest recevied weather packets stored in our database for station/object WP3OF-2. If no packets are shown the sender has not sent any weather packets the latest 10 day(s).

<< 24 25 26 27 28 29 30 >>
Time Temp. Humidity Pressure Rain* Wind** Luminosity Snow
1788471974 21.11° C 99% 1024.9 hPa 1.27 mm - 18 W/m² -
1788471669 20.56° C 99% 1024.9 hPa 1.27 mm - 27 W/m² -
1788471364 21.11° C 99% 1024.9 hPa 1.78 mm - 30 W/m² -
1788471060 21.11° C 99% 1024.9 hPa 1.27 mm - 35 W/m² -
1788470756 21.11° C 99% 1024.9 hPa 3.05 mm - 30 W/m² -
1788470450 21.11° C 99% 1024.9 hPa 1.78 mm - 22 W/m² -
1788470145 21.11° C 99% 1025.2 hPa 0 mm - 16 W/m² -
1788469842 21.11° C 99% 1025.2 hPa 0 mm - 10 W/m² -
1788469537 21.11° C 99% 1024.9 hPa 1.27 mm - 10 W/m² -
1788469233 21.11° C 99% 1024.9 hPa 1.78 mm - 12 W/m² -
1788468932 21.11° C 99% 1024.9 hPa 1.78 mm - 8 W/m² -
1788468653 20.56° C 99% 1024.9 hPa 0 mm - 16 W/m² -
1788468322 20.56° C 99% 1024.9 hPa 0 mm - 23 W/m² -
1788468017 21.11° C 99% 1024.9 hPa 0 mm - 16 W/m² -
1788467713 21.11° C 99% 1024.9 hPa 0 mm - 9 W/m² -
1788467412 21.11° C 99% 1024.9 hPa 0 mm - 9 W/m² -
1788467109 21.11° C 99% 1024.9 hPa 0 mm - 11 W/m² -
1788466804 21.67° C 99% 1024.9 hPa 0 mm - 12 W/m² -
1788466498 21.67° C 99% 1024.9 hPa 0 mm - 14 W/m² -
1788466197 21.67° C 99% 1024.9 hPa 0 mm - 12 W/m² -
1788465893 21.67° C 99% 1024.9 hPa 6.1 mm - 10 W/m² -
1788465618 21.67° C 99% 1024.9 hPa 13.21 mm - 4 W/m² -
1788465283 21.67° C 99% 1024.9 hPa 10.92 mm - 12 W/m² -
1788464978 21.67° C 99% 1024.9 hPa 7.11 mm - 23 W/m² -
1788464674 21.67° C 99% 1024.9 hPa 11.94 mm - 35 W/m² -

* Rain latest hour (hover to see other rain measurements)
** Current wind speed in m/s (hover to see current wind gust speed)